Regional Weather Roundup
Issued by NWS

Home | Current Version | Previous Version | Graphics & Text | Print | Product List | Glossary On
Versions: 1 2 3 4 5 6 7 8 9 10 11 12 13 14 15 16 17 18 19 20 21 22 23 24 25 26 27 28 29 30 31 32 33 34 35 36 37 38 39 40 41 42 43 44 45 46 47 48 49 50
978
ASUS45 KPSR 041510
RWRAZ

ARIZONA HOURLY REGIONAL WEATHER ROUNDUP
NATIONAL WEATHER SERVICE PHOENIX AZ
800 AM MST SUN DEC 04 2016

NOTE: FAIR INDICATES FEW OR NO CLOUDS BELOW 12,000 FEET WITH NO
SIGNIFICANT WEATHER AND/OR OBSTRUCTIONS TO VISIBILITY.

AZZ001>003-036-041600-
NORTHWEST ARIZONA

CITY           SKY/WX    TMP DP  RH WIND       PRES   REMARKS
BULLHEAD CITY  CLEAR     54  19  26 N21G28    30.12S
KINGMAN        CLEAR     33  10  38 E5        30.17R WCI  29
$$

AZZ004>008-015-016-018-041600-
NORTH CENTRAL ARIZONA

CITY           SKY/WX    TMP DP  RH WIND       PRES   REMARKS
GRAND CANYON   PTCLDY    10   6  84 CALM      30.20R
PRESCOTT       PTCLDY    25  15  66 S6        30.16R WCI  18
FLAGSTAFF      CLEAR     28   5  37 E6        30.17S WCI  22
PAYSON         CLEAR     36   5  27 CALM      30.14R
PAGE           CLEAR     29  11  47 SW3       30.23R
$$

AZZ009>014-017-041600-
NORTHEAST ARIZONA

CITY           SKY/WX    TMP DP  RH WIND       PRES   REMARKS
WINSLOW        PTCLDY    19  11  70 CALM      30.23R
SAINT JOHNS    CLEAR     19  15  84 CALM      30.18R
WINDOW ROCK    CLEAR     12   6  77 CALM      30.18S
SHOW LOW       CLEAR     18  10  73 CALM      30.18R
$$

AZZ023-041600-
GREATER PHOENIX AREA

CITY           SKY/WX    TMP DP  RH WIND       PRES   REMARKS
PHOENIX        CLEAR     44  28  53 CALM      30.05R
BUCKEYE        CLEAR     43  19  39 NW6       30.09R
GLENDALE       CLEAR     41  27  56 CALM      30.08R
LUKE AFB       CLEAR     45  24  43 N8        30.05S
DEER VALLEY    CLEAR     46  15  28 NE5       30.05S
SCOTTSDALE     CLEAR     41  25  53 NE5       30.06R
MESA-FALCON    CLEAR    N/A N/A N/A N9        30.04
MESA-GATEWAY   CLEAR     50  14  23 VRB6      30.05S
CHANDLER       CLEAR     45  21  39 N7        30.04S
$$

AZZ027-028-041600-
SOUTHWEST MARICOPA COUNTY AND PINAL COUNTY

CITY           SKY/WX    TMP DP  RH WIND       PRES   REMARKS
CASA GRANDE    NOT AVBL
GILA BEND      CLEAR     41  21  45 NE6       30.05
$$

AZZ503-504-507>509-041600-
SOUTHEAST ARIZONA

CITY           SKY/WX    TMP DP  RH WIND       PRES   REMARKS
TUCSON         CLEAR     37  23  56 S5        30.07S WCI  33
DAVIS-MONTHAN  PTCLDY    39  27  63 S3        30.05S
RYAN FIELD     CLEAR     34  23  64 E6        30.07  WCI  29
NOGALES        CLEAR     36  28  73 CALM      30.04R
SIERRA VISTA   CLEAR     38  29  71 SE3       30.08R
DOUGLAS        CLEAR     31  30  96 N3        30.08R
SAFFORD        CLEAR     34  32  92 E3        30.09R
$$

AZZ020-021-025-026-031-041600-
SOUTHWEST ARIZONA

CITY           SKY/WX    TMP DP  RH WIND       PRES   REMARKS
YUMA           CLEAR     52  13  21 N6        30.08R
$$

CAZ031-033-041-043-047-048-061-041600-
SOUTHERN CALIFORNIA

CITY           SKY/WX    TMP DP  RH WIND       PRES   REMARKS
DOWNTOWN L.A.  CLEAR     44  33  65 CALM      30.07R
L.A. AIRPORT   CLEAR     47  30  51 E5        30.07S
SAN DIEGO      CLEAR     48  29  47 CALM      30.09R
BURBANK        CLEAR     46  23  40 N5        30.07R
ONTARIO        PTCLDY    45  25  45 CALM      30.08R
RIVERSIDE      CLEAR     45  27  49 NE5       30.08R
PALM SPRINGS   CLEAR     49  21  33 NW6       30.10R
EL CENTRO NAS  CLEAR     44  13  28 W12       30.10R
IMPERIAL       CLEAR     46  18  32 W7        30.08R
BLYTHE         CLEAR     51  10  19 N9        30.11R
NEEDLES        CLEAR     52  17  25 N8        30.13R
$$

NVZ020-UTZ003-041600-
SOUTHERN NEVADA-UTAH

CITY           SKY/WX    TMP DP  RH WIND       PRES   REMARKS
LAS VEGAS      CLEAR     38  14  37 SW6       30.18R WCI  33
SALT LAKE CITY MOCLDY    29  19  66 SE12      30.17F WCI  19
$$

NMZ009-TXZ055-041600-
NEW MEXICO-WEST TEXAS

CITY           SKY/WX    TMP DP  RH WIND       PRES   REMARKS
ALBUQUERQUE    CLOUDY    30  12  47 N6        30.17R WCI  24
EL PASO        SUNNY     40  27  59 N9        30.08R WCI  34
$$


........................KEY........................
SKY/WX - SKY CONDITION/WEATHER
TMP    - TEMPERATURE IN FAHRENHEIT
DP     - DEW POINT IN FAHRENHEIT
RH     - RELATIVE HUMIDITY IN PERCENT
WIND   - DIRECTION AND SPEED IN MILES PER HOUR (MPH)
VRB    - VARIABLE WIND DIRECTION
PRES   - MEAN SEA LEVEL PRESSURE IN INCHES OF MERCURY
         F - FALLING PRESSURE   R - RISING PRESSURE
         S - STEADY PRESSURE
VSB    - VISIBILITY IN MILES
HX     - HEAT INDEX IN FAHRENHEIT
WCI    - WIND CHILL INDEX IN FAHRENHEIT
TC     - TEMPERATURE IN CELSIUS WHICH IS ALSO KNOWN AS
         TEMPERATURE IN CENTIGRADE
AFB    - AIR FORCE BASE
         LUKE AFB IS LUKE AIR FORCE BASE
         DAVIS-MONTHAN IS DAVIS-MONTHAN AIR FORCE BASE
NAS    - NAVAL AIR STATION
         EL CENTRO NAS IS EL CENTRO NAVAL AIR STATION
N/A    - NOT AVAILABLE





USA.gov is the U.S. government's official web portal to all federal, state and local government web resources and services.